Hourly Weather Koleczkowo

Today, 30 July, Friday

Time Temperature Precipitation Wind Pressure Humidity
00:00 +14°C° 0 mm 4 mps 739 mmHg 73%
01:00 +13°C° 0 mm 4 mps 739 mmHg 73%
02:00 +13°C° 0 mm 5 mps 738 mmHg 74%
03:00 +13°C° 0 mm 5 mps 738 mmHg 76%
04:00 +13°C° 0 mm 5 mps 738 mmHg 77%
05:00 +14°C° 0 mm 6 mps 738 mmHg 71%
06:00 +15°C° 0 mm 7 mps 738 mmHg 66%
07:00 +17°C° 0 mm 7 mps 738 mmHg 61%
08:00 +18°C° 0 mm 8 mps 738 mmHg 54%
09:00 +20°C° 0 mm 8 mps 738 mmHg 47%
10:00 +22°C° 0 mm 9 mps 737 mmHg 40%
11:00 +22°C° 0 mm 9 mps 737 mmHg 39%
12:00 +23°C° 0 mm 9 mps 737 mmHg 39%
13:00 +23°C° 0 mm 8 mps 737 mmHg 38%
14:00 +23°C° 0 mm 8 mps 737 mmHg 38%
15:00 +24°C° 0 mm 8 mps 737 mmHg 38%
16:00 +24°C° 0 mm 8 mps 737 mmHg 38%
17:00 +23°C° 0 mm 7 mps 737 mmHg 44%
18:00 +21°C° 0 mm 6 mps 737 mmHg 50%
19:00 +20°C° 0 mm 6 mps 737 mmHg 56%
20:00 +19°C° 0 mm 5 mps 737 mmHg 62%
21:00 +16°C° 0 mm 5 mps 737 mmHg 69%
22:00 +15°C° 0 mm 4 mps 737 mmHg 75%
23:00 +15°C° 0 mm 4 mps 737 mmHg 78%

Tomorrow, 31 July, Saturday

Time Temperature Precipitation Wind Pressure Humidity
00:00 +14°C° 0 mm 4 mps 737 mmHg 81%
01:00 +14°C° 0 mm 4 mps 737 mmHg 84%
02:00 +14°C° 0 mm 4 mps 737 mmHg 82%
03:00 +13°C° 0 mm 3 mps 737 mmHg 80%
04:00 +13°C° 0 mm 3 mps 737 mmHg 78%
05:00 +16°C° 0 mm 3 mps 737 mmHg 71%
06:00 +18°C° 0 mm 4 mps 737 mmHg 64%
07:00 +20°C° 0 mm 4 mps 737 mmHg 56%
08:00 +22°C° 0 mm 4 mps 737 mmHg 53%
09:00 +23°C° 0 mm 5 mps 736 mmHg 49%
10:00 +26°C° 0 mm 6 mps 736 mmHg 46%
11:00 +24°C° 0 mm 6 mps 736 mmHg 48%
12:00 +24°C° 0 mm 6 mps 736 mmHg 49%
13:00 +24°C° 0 mm 6 mps 736 mmHg 51%
14:00 +24°C° 0 mm 6 mps 736 mmHg 50%
15:00 +24°C° 0 mm 6 mps 735 mmHg 49%
16:00 +23°C° 0 mm 6 mps 735 mmHg 48%
17:00 +23°C° 0 mm 6 mps 735 mmHg 49%
18:00 +22°C° 0 mm 5 mps 735 mmHg 50%
19:00 +21°C° 0 mm 5 mps 735 mmHg 51%
20:00 +20°C° 0 mm 5 mps 736 mmHg 54%
21:00 +19°C° 0 mm 6 mps 736 mmHg 57%
22:00 +17°C° 0 mm 6 mps 736 mmHg 60%
23:00 +17°C° 0 mm 6 mps 736 mmHg 65%

Day after tomorrow, 1 August, Sunday

Time Temperature Precipitation Wind Pressure Humidity
00:00 +16°C° 0 mm 6 mps 736 mmHg 70%
01:00 +16°C° 0 mm 6 mps 736 mmHg 75%
02:00 +15°C° 0 mm 6 mps 736 mmHg 79%
03:00 +15°C° 0 mm 6 mps 736 mmHg 83%
04:00 +14°C° 0 mm 6 mps 736 mmHg 87%
05:00 +15°C° 0 mm 6 mps 737 mmHg 83%
06:00 +16°C° 0 mm 6 mps 737 mmHg 79%
07:00 +17°C° 0 mm 6 mps 737 mmHg 75%
08:00 +19°C° 0 mm 6 mps 737 mmHg 69%
09:00 +20°C° 0 mm 6 mps 737 mmHg 63%
10:00 +21°C° 0 mm 6 mps 738 mmHg 56%
11:00 +21°C° 0 mm 5 mps 738 mmHg 52%
12:00 +22°C° 0 mm 5 mps 738 mmHg 48%
13:00 +23°C° 0 mm 5 mps 738 mmHg 45%
14:00 +22°C° 0 mm 5 mps 738 mmHg 46%
15:00 +22°C° 0 mm 5 mps 738 mmHg 48%
16:00 +22°C° 0 mm 4 mps 738 mmHg 50%
17:00 +21°C° 0 mm 4 mps 738 mmHg 53%
18:00 +20°C° 0 mm 4 mps 738 mmHg 57%
19:00 +19°C° 0 mm 4 mps 738 mmHg 61%
20:00 +18°C° 0 mm 3 mps 738 mmHg 66%
21:00 +16°C° 0 mm 2 mps 738 mmHg 71%
22:00 +15°C° 0 mm 2 mps 738 mmHg 76%
23:00 +15°C° 0 mm 2 mps 738 mmHg 77%

2 August, Monday

Time Temperature Precipitation Wind Pressure Humidity
00:00 +15°C° 0 mm 2 mps 738 mmHg 79%
01:00 +14°C° 0 mm 2 mps 738 mmHg 80%
02:00 +13°C° 0 mm 3 mps 738 mmHg 81%
03:00 +13°C° 0 mm 3 mps 737 mmHg 82%
04:00 +13°C° 0 mm 4 mps 737 mmHg 83%
05:00 +14°C° 0.1 mm 4 mps 737 mmHg 78%
06:00 +16°C° 0.1 mm 5 mps 737 mmHg 74%
07:00 +17°C° 0.1 mm 6 mps 737 mmHg 69%
08:00 +17°C° 0.4 mm 6 mps 737 mmHg 70%
09:00 +17°C° 0.4 mm 6 mps 738 mmHg 72%
10:00 +17°C° 0.4 mm 6 mps 738 mmHg 74%
11:00 +19°C° 0.1 mm 6 mps 738 mmHg 66%
12:00 +20°C° 0.1 mm 7 mps 738 mmHg 58%
13:00 +20°C° 0.1 mm 7 mps 738 mmHg 50%
14:00 +20°C° 0 mm 7 mps 739 mmHg 50%
15:00 +20°C° 0 mm 7 mps 739 mmHg 50%
16:00 +20°C° 0 mm 7 mps 739 mmHg 50%
17:00 +18°C° 0 mm 7 mps 739 mmHg 53%
18:00 +17°C° 0 mm 7 mps 739 mmHg 57%
19:00 +17°C° 0 mm 6 mps 739 mmHg 61%
20:00 +16°C° 0 mm 6 mps 739 mmHg 66%
21:00 +15°C° 0 mm 6 mps 740 mmHg 70%
22:00 +14°C° 0 mm 6 mps 740 mmHg 75%
23:00 +14°C° 0 mm 6 mps 740 mmHg 77%

3 August, Tuesday

Time Temperature Precipitation Wind Pressure Humidity
00:00 +14°C° 0 mm 6 mps 740 mmHg 79%
01:00 +14°C° 0 mm 6 mps 741 mmHg 81%
02:00 +13°C° 0 mm 6 mps 741 mmHg 82%
03:00 +13°C° 0 mm 6 mps 741 mmHg 83%
04:00 +13°C° 0 mm 6 mps 741 mmHg 84%
05:00 +14°C° 0.1 mm 6 mps 741 mmHg 81%
06:00 +15°C° 0.1 mm 6 mps 741 mmHg 77%
07:00 +16°C° 0.1 mm 6 mps 742 mmHg 74%
08:00 +17°C° 0.2 mm 6 mps 742 mmHg 68%
09:00 +19°C° 0.2 mm 6 mps 742 mmHg 63%
10:00 +20°C° 0.2 mm 6 mps 742 mmHg 57%
11:00 +21°C° 0.3 mm 6 mps 743 mmHg 55%
12:00 +21°C° 0.3 mm 6 mps 743 mmHg 52%
13:00 +21°C° 0.3 mm 6 mps 743 mmHg 50%
14:00 +21°C° 0 mm 6 mps 743 mmHg 50%
15:00 +21°C° 0 mm 6 mps 743 mmHg 50%
16:00 +21°C° 0 mm 6 mps 743 mmHg 51%
17:00 +20°C° 0 mm 5 mps 743 mmHg 55%
18:00 +19°C° 0 mm 4 mps 743 mmHg 60%
19:00 +17°C° 0 mm 3 mps 743 mmHg 65%
20:00 +17°C° 0 mm 3 mps 743 mmHg 68%
21:00 +16°C° 0 mm 2 mps 744 mmHg 71%
22:00 +15°C° 0 mm 1 mps 744 mmHg 74%
23:00 +15°C° 0 mm 1 mps 744 mmHg 74%

4 August, Wednesday

Time Temperature Precipitation Wind Pressure Humidity
00:00 +15°C° 0 mm 1 mps 744 mmHg 74%
01:00 +15°C° 0 mm 1 mps 744 mmHg 73%
02:00 +15°C° 0.2 mm 1 mps 744 mmHg 78%
03:00 +15°C° 0.2 mm 2 mps 744 mmHg 82%
04:00 +14°C° 0.2 mm 2 mps 744 mmHg 87%
05:00 +14°C° 0.6 mm 2 mps 744 mmHg 89%
06:00 +14°C° 0.6 mm 2 mps 744 mmHg 90%
07:00 +14°C° 0.6 mm 1 mps 744 mmHg 92%
08:00 +14°C° 0.8 mm 1 mps 744 mmHg 92%
09:00 +14°C° 0.8 mm 1 mps 744 mmHg 92%
10:00 +14°C° 0.8 mm 1 mps 744 mmHg 91%
11:00 +15°C° 0.3 mm 1 mps 744 mmHg 86%
12:00 +15°C° 0.3 mm 1 mps 744 mmHg 81%
13:00 +16°C° 0.3 mm 1 mps 744 mmHg 77%
14:00 +17°C° 0 mm 2 mps 744 mmHg 70%
15:00 +18°C° 0 mm 2 mps 744 mmHg 63%
16:00 +19°C° 0 mm 3 mps 744 mmHg 57%
17:00 +18°C° 0 mm 2 mps 744 mmHg 62%
18:00 +17°C° 0 mm 2 mps 744 mmHg 68%
19:00 +16°C° 0 mm 2 mps 744 mmHg 74%
20:00 +15°C° 0 mm 2 mps 744 mmHg 78%
21:00 +14°C° 0 mm 1 mps 744 mmHg 82%
22:00 +13°C° 0 mm 1 mps 744 mmHg 85%
23:00 +13°C° 0 mm 1 mps 744 mmHg 86%
Show more